Location: Arbon
(43.0005°N, 0.7472°E)
Time: 11:53:52
(UTC+00:00)

SKYMED 3 - Pass Details

Date: 22 April 2026
Orbit: 535 x 558 km, 97.8° (Epoch: 16 May)

Event Time Altitude Azimuth Distance (km) Brightness Sun altitude
Rises 20:18:08 0° 12° (NNE) 2,695 8.1 -15.6°
Reaches altitude 10° 20:20:15 10° 13° (NNE) 1,801 7.2 -16.0°
Maximum altitude 20:24:08 89° 95° (E) 544 4.2 -16.5°
Drops below altitude 10° 20:28:01 10° 194° (SSW) 1,794 6.7 -17.1°
Enters shadow 20:28:17 - 194° (SSW) 1,904 6.8 -17.2°
